Year,Month,Day,Hour,Minute,Value (Times are PST for temperature in C)
2017,08,19,00,00,15.20
2017,08,19,00,01,15.20
2017,08,19,00,02,15.20
2017,08,19,00,03,15.10
2017,08,19,00,04,15.10
2017,08,19,00,05,15.10
2017,08,19,00,06,15.10
2017,08,19,00,07,15.10
2017,08,19,00,08,15.10
2017,08,19,00,09,15.00
2017,08,19,00,10,15.00
2017,08,19,00,11,15.00
2017,08,19,00,12,15.00
2017,08,19,00,13,15.00
2017,08,19,00,14,14.90
2017,08,19,00,15,14.90
2017,08,19,00,16,14.90
2017,08,19,00,17,14.90
2017,08,19,00,18,14.90
2017,08,19,00,19,14.90
2017,08,19,00,20,14.90
2017,08,19,00,21,14.90
2017,08,19,00,22,14.90
2017,08,19,00,23,14.90
2017,08,19,00,24,14.90
2017,08,19,00,25,14.90
2017,08,19,00,26,14.80
2017,08,19,00,27,14.80
2017,08,19,00,28,14.80
2017,08,19,00,29,14.80
2017,08,19,00,30,14.80
2017,08,19,00,31,14.80
2017,08,19,00,32,14.80
2017,08,19,00,33,14.70
2017,08,19,00,34,14.70
2017,08,19,00,35,14.70
2017,08,19,00,36,14.70
2017,08,19,00,37,14.70
2017,08,19,00,38,14.70
2017,08,19,00,39,14.70
2017,08,19,00,40,14.70
2017,08,19,00,41,14.70
2017,08,19,00,42,14.60
2017,08,19,00,43,14.60
2017,08,19,00,44,14.60
2017,08,19,00,45,14.60
2017,08,19,00,46,14.60
2017,08,19,00,47,14.60
2017,08,19,00,48,14.60
2017,08,19,00,49,14.60
2017,08,19,00,50,14.60
2017,08,19,00,51,14.60
2017,08,19,00,52,14.60
2017,08,19,00,53,14.50
2017,08,19,00,54,14.50
2017,08,19,00,55,14.50
2017,08,19,00,56,14.50
2017,08,19,00,57,14.50
2017,08,19,00,58,14.40
2017,08,19,00,59,14.40
2017,08,19,01,00,14.40
2017,08,19,01,01,14.40
2017,08,19,01,02,14.40
2017,08,19,01,03,14.40
2017,08,19,01,04,14.40
2017,08,19,01,05,14.30
2017,08,19,01,06,14.30
2017,08,19,01,07,14.30
2017,08,19,01,08,14.30
2017,08,19,01,09,14.30
2017,08,19,01,10,14.30
2017,08,19,01,11,14.30
2017,08,19,01,12,14.30
2017,08,19,01,13,14.30
2017,08,19,01,14,14.30
2017,08,19,01,15,14.30
2017,08,19,01,16,14.30
2017,08,19,01,17,14.30
2017,08,19,01,18,14.30
2017,08,19,01,19,14.20
2017,08,19,01,20,14.20
2017,08,19,01,21,14.20
2017,08,19,01,22,14.20
2017,08,19,01,23,14.20
2017,08,19,01,24,14.20
2017,08,19,01,25,14.20
2017,08,19,01,26,14.20
2017,08,19,01,27,14.10
2017,08,19,01,28,14.10
2017,08,19,01,29,14.10
2017,08,19,01,30,14.10
2017,08,19,01,31,14.10
2017,08,19,01,32,14.00
2017,08,19,01,33,14.00
2017,08,19,01,34,14.00
2017,08,19,01,35,13.90
2017,08,19,01,36,13.90
2017,08,19,01,37,13.90
2017,08,19,01,38,13.80
2017,08,19,01,39,13.80
2017,08,19,01,40,13.70
2017,08,19,01,41,13.70
2017,08,19,01,42,13.70
2017,08,19,01,43,13.70
2017,08,19,01,44,13.60
2017,08,19,01,45,13.60
2017,08,19,01,46,13.60
2017,08,19,01,47,13.60
2017,08,19,01,48,13.60
2017,08,19,01,49,13.60
2017,08,19,01,50,13.60
2017,08,19,01,51,13.60
2017,08,19,01,52,13.50
2017,08,19,01,53,13.50
2017,08,19,01,54,13.50
2017,08,19,01,55,13.50
2017,08,19,01,56,13.50
2017,08,19,01,57,13.40
2017,08,19,01,58,13.40
2017,08,19,01,59,13.40
2017,08,19,02,00,13.40
2017,08,19,02,01,13.40
2017,08,19,02,02,13.40
2017,08,19,02,03,13.40
2017,08,19,02,04,13.40
2017,08,19,02,05,13.40
2017,08,19,02,06,13.40
2017,08,19,02,07,13.40
2017,08,19,02,08,13.40
2017,08,19,02,09,13.40
2017,08,19,02,10,13.40
2017,08,19,02,11,13.40
2017,08,19,02,12,13.40
2017,08,19,02,13,13.40
2017,08,19,02,14,13.40
2017,08,19,02,15,13.40
2017,08,19,02,16,13.40
2017,08,19,02,17,13.40
2017,08,19,02,18,13.40
2017,08,19,02,19,13.40
2017,08,19,02,20,13.40
2017,08,19,02,21,13.40
2017,08,19,02,22,13.30
2017,08,19,02,23,13.30
2017,08,19,02,24,13.30
2017,08,19,02,25,13.30
2017,08,19,02,26,13.30
2017,08,19,02,27,13.30
2017,08,19,02,28,13.20
2017,08,19,02,29,13.20
2017,08,19,02,30,13.20
2017,08,19,02,31,13.20
2017,08,19,02,32,13.10
2017,08,19,02,33,13.10
2017,08,19,02,34,13.10
2017,08,19,02,35,13.10
2017,08,19,02,36,13.10
2017,08,19,02,37,13.10
2017,08,19,02,38,13.00
2017,08,19,02,39,13.00
2017,08,19,02,40,13.00
2017,08,19,02,41,13.00
2017,08,19,02,42,12.90
2017,08,19,02,43,12.90
2017,08,19,02,44,12.90
2017,08,19,02,45,12.90
2017,08,19,02,46,12.90
2017,08,19,02,47,12.80
2017,08,19,02,48,12.80
2017,08,19,02,49,12.80
2017,08,19,02,50,12.80
2017,08,19,02,51,12.80
2017,08,19,02,52,12.80
2017,08,19,02,53,12.70
2017,08,19,02,54,12.70
2017,08,19,02,55,12.70
2017,08,19,02,56,12.70
2017,08,19,02,57,12.70
2017,08,19,02,58,12.70
2017,08,19,02,59,12.70
2017,08,19,03,00,12.60
2017,08,19,03,01,12.60
2017,08,19,03,02,12.60
2017,08,19,03,03,12.60
2017,08,19,03,04,12.60
2017,08,19,03,05,12.50
2017,08,19,03,06,12.50
2017,08,19,03,07,12.50
2017,08,19,03,08,12.50
2017,08,19,03,09,12.40
2017,08,19,03,10,12.40
2017,08,19,03,11,12.40
2017,08,19,03,12,12.40
2017,08,19,03,13,12.40
2017,08,19,03,14,12.40
2017,08,19,03,15,12.40
2017,08,19,03,16,12.40
2017,08,19,03,17,12.40
2017,08,19,03,18,12.40
2017,08,19,03,19,12.40
2017,08,19,03,20,12.40
2017,08,19,03,21,12.40
2017,08,19,03,22,12.40
2017,08,19,03,23,12.40
2017,08,19,03,24,12.40
2017,08,19,03,25,12.40
2017,08,19,03,26,12.40
2017,08,19,03,27,12.40
2017,08,19,03,28,12.40
2017,08,19,03,29,12.40
2017,08,19,03,30,12.40
2017,08,19,03,31,12.40
2017,08,19,03,32,12.40
2017,08,19,03,33,12.40
2017,08,19,03,34,12.40
2017,08,19,03,35,12.40
2017,08,19,03,36,12.40
2017,08,19,03,37,12.40
2017,08,19,03,38,12.40
2017,08,19,03,39,12.40
2017,08,19,03,40,12.40
2017,08,19,03,41,12.40
2017,08,19,03,42,12.40
2017,08,19,03,43,12.40
2017,08,19,03,44,12.40
2017,08,19,03,45,12.40
2017,08,19,03,46,12.40
2017,08,19,03,47,12.40
2017,08,19,03,48,12.40
2017,08,19,03,49,12.40
2017,08,19,03,50,12.40
2017,08,19,03,51,12.40
2017,08,19,03,52,12.40
2017,08,19,03,53,12.40
2017,08,19,03,54,12.40
2017,08,19,03,55,12.40
2017,08,19,03,56,12.40
2017,08,19,03,57,12.40
2017,08,19,03,58,12.40
2017,08,19,03,59,12.40
2017,08,19,04,00,12.40
2017,08,19,04,01,12.40
2017,08,19,04,02,12.40
2017,08,19,04,03,12.50
2017,08,19,04,04,12.50
2017,08,19,04,05,12.50
2017,08,19,04,06,12.50
2017,08,19,04,07,12.60
2017,08,19,04,08,12.60
2017,08,19,04,09,12.60
2017,08,19,04,10,12.60
2017,08,19,04,11,12.60
2017,08,19,04,12,12.60
2017,08,19,04,13,12.60
2017,08,19,04,14,12.60
2017,08,19,04,15,12.70
2017,08,19,04,16,12.70
2017,08,19,04,17,12.70
2017,08,19,04,18,12.70
2017,08,19,04,19,12.70
2017,08,19,04,20,12.70
2017,08,19,04,21,12.70
2017,08,19,04,22,12.70
2017,08,19,04,23,12.70
2017,08,19,04,24,12.70
2017,08,19,04,25,12.70
2017,08,19,04,26,12.70
2017,08,19,04,27,12.70
2017,08,19,04,28,12.70
2017,08,19,04,29,12.70
2017,08,19,04,30,12.60
2017,08,19,04,31,12.60
2017,08,19,04,32,12.60
2017,08,19,04,33,12.60
2017,08,19,04,34,12.60
2017,08,19,04,35,12.60
2017,08,19,04,36,12.60
2017,08,19,04,37,12.60
2017,08,19,04,38,12.60
2017,08,19,04,39,12.50
2017,08,19,04,40,12.50
2017,08,19,04,41,12.50
2017,08,19,04,42,12.50
2017,08,19,04,43,12.40
2017,08,19,04,44,12.40
2017,08,19,04,45,12.40
2017,08,19,04,46,12.40
2017,08,19,04,47,12.30
2017,08,19,04,48,12.30
2017,08,19,04,49,12.30
2017,08,19,04,50,12.20
2017,08,19,04,51,12.20
2017,08,19,04,52,12.20
2017,08,19,04,53,12.20
2017,08,19,04,54,12.20
2017,08,19,04,55,12.20
2017,08,19,04,56,12.20
2017,08,19,04,57,12.20
2017,08,19,04,58,12.20
2017,08,19,04,59,12.10
2017,08,19,05,00,12.10
2017,08,19,05,01,12.10
2017,08,19,05,02,12.10
2017,08,19,05,03,12.10
2017,08,19,05,04,12.10
2017,08,19,05,05,12.00
2017,08,19,05,06,12.00
2017,08,19,05,07,12.00
2017,08,19,05,08,12.00
2017,08,19,05,09,11.90
2017,08,19,05,10,11.90
2017,08,19,05,11,11.90
2017,08,19,05,12,11.90
2017,08,19,05,13,11.90
2017,08,19,05,14,11.90
2017,08,19,05,15,11.90
2017,08,19,05,16,11.90
2017,08,19,05,17,11.80
2017,08,19,05,18,11.80
2017,08,19,05,19,11.80
2017,08,19,05,20,11.80
2017,08,19,05,21,11.80
2017,08,19,05,22,11.80
2017,08,19,05,23,11.80
2017,08,19,05,24,11.80
2017,08,19,05,25,11.80
2017,08,19,05,26,11.80
2017,08,19,05,27,11.70
2017,08,19,05,28,11.70
2017,08,19,05,29,11.70
2017,08,19,05,30,11.70
2017,08,19,05,31,11.70
2017,08,19,05,32,11.70
2017,08,19,05,33,11.70
2017,08,19,05,34,11.70
2017,08,19,05,35,11.70
2017,08,19,05,36,11.60
2017,08,19,05,37,11.60
2017,08,19,05,38,11.60
2017,08,19,05,39,11.60
2017,08,19,05,40,11.60
2017,08,19,05,41,11.60
2017,08,19,05,42,11.60
2017,08,19,05,43,11.60
2017,08,19,05,44,11.60
2017,08,19,05,45,11.60
2017,08,19,05,46,11.50
2017,08,19,05,47,11.60
2017,08,19,05,48,11.50
2017,08,19,05,49,11.50
2017,08,19,05,50,11.50
2017,08,19,05,51,11.50
2017,08,19,05,52,11.40
2017,08,19,05,53,11.40
2017,08,19,05,54,11.40
2017,08,19,05,55,11.40
2017,08,19,05,56,11.40
2017,08,19,05,57,11.40
2017,08,19,05,58,11.40
2017,08,19,05,59,11.40
2017,08,19,06,00,11.40
2017,08,19,06,01,11.30
2017,08,19,06,02,11.30
2017,08,19,06,03,11.30
2017,08,19,06,04,11.30
2017,08,19,06,05,11.30
2017,08,19,06,06,11.30
2017,08,19,06,07,11.30
2017,08,19,06,08,11.30
2017,08,19,06,09,11.30
2017,08,19,06,10,11.30
2017,08,19,06,11,11.30
2017,08,19,06,12,11.30
2017,08,19,06,13,11.30
2017,08,19,06,14,11.30
2017,08,19,06,15,11.30
2017,08,19,06,16,11.30
2017,08,19,06,17,11.20
2017,08,19,06,18,11.20
2017,08,19,06,19,11.20
2017,08,19,06,20,11.20
2017,08,19,06,21,11.20
2017,08,19,06,22,11.20
2017,08,19,06,23,11.20
2017,08,19,06,24,11.20
2017,08,19,06,25,11.20
2017,08,19,06,26,11.10
2017,08,19,06,27,11.10
2017,08,19,06,28,11.10
2017,08,19,06,29,11.10
2017,08,19,06,30,11.10
2017,08,19,06,31,11.10
2017,08,19,06,32,11.10
2017,08,19,06,33,11.10
2017,08,19,06,34,11.10
2017,08,19,06,35,11.10
2017,08,19,06,36,11.10
2017,08,19,06,37,11.00
2017,08,19,06,38,11.00
2017,08,19,06,39,11.00
2017,08,19,06,40,11.00
2017,08,19,06,41,11.00
2017,08,19,06,42,11.00
2017,08,19,06,43,11.00
2017,08,19,06,44,11.00
2017,08,19,06,45,11.00
2017,08,19,06,46,11.00
2017,08,19,06,47,11.00
2017,08,19,06,48,11.00
2017,08,19,06,49,11.00
2017,08,19,06,50,11.10
2017,08,19,06,51,11.10
2017,08,19,06,52,11.10
2017,08,19,06,53,11.10
2017,08,19,06,54,11.10
2017,08,19,06,55,11.10
2017,08,19,06,56,11.10
2017,08,19,06,57,11.10
2017,08,19,06,58,11.10
2017,08,19,06,59,11.20
2017,08,19,07,00,11.20
2017,08,19,07,01,11.20
2017,08,19,07,02,11.20
2017,08,19,07,03,11.20
2017,08,19,07,04,11.20
2017,08,19,07,05,11.20
2017,08,19,07,06,11.30
2017,08,19,07,07,11.30
2017,08,19,07,08,11.30
2017,08,19,07,09,11.30
2017,08,19,07,10,11.40
2017,08,19,07,11,11.40
2017,08,19,07,12,11.40
2017,08,19,07,13,11.50
2017,08,19,07,14,11.50
2017,08,19,07,15,11.60
2017,08,19,07,16,11.60
2017,08,19,07,17,11.70
2017,08,19,07,18,11.70
2017,08,19,07,19,11.80
2017,08,19,07,20,11.80
2017,08,19,07,21,11.90
2017,08,19,07,22,11.90
2017,08,19,07,23,12.00
2017,08,19,07,24,12.00
2017,08,19,07,25,12.10
2017,08,19,07,26,12.10
2017,08,19,07,27,12.10
2017,08,19,07,28,12.20
2017,08,19,07,29,12.20
2017,08,19,07,30,12.30
2017,08,19,07,31,12.40
2017,08,19,07,32,12.50
2017,08,19,07,33,12.60
2017,08,19,07,34,12.70
2017,08,19,07,35,12.80
2017,08,19,07,36,12.80
2017,08,19,07,37,12.80
2017,08,19,07,38,12.80
2017,08,19,07,39,12.80
2017,08,19,07,40,12.90
2017,08,19,07,41,12.90
2017,08,19,07,42,12.90
2017,08,19,07,43,13.00
2017,08,19,07,44,13.00
2017,08,19,07,45,13.10
2017,08,19,07,46,13.10
2017,08,19,07,47,13.20
2017,08,19,07,48,13.20
2017,08,19,07,49,13.30
2017,08,19,07,50,13.30
2017,08,19,07,51,13.40
2017,08,19,07,52,13.40
2017,08,19,07,53,13.50
2017,08,19,07,54,13.50
2017,08,19,07,55,13.50
2017,08,19,07,56,13.50
2017,08,19,07,57,13.60
2017,08,19,07,58,13.60
2017,08,19,07,59,13.60
2017,08,19,08,00,13.60
2017,08,19,08,01,13.70
2017,08,19,08,02,13.70
2017,08,19,08,03,13.70
2017,08,19,08,04,13.70
2017,08,19,08,05,13.70
2017,08,19,08,06,13.70
2017,08,19,08,07,13.70
2017,08,19,08,08,13.70
2017,08,19,08,09,13.80
2017,08,19,08,10,13.80
2017,08,19,08,11,13.80
2017,08,19,08,12,13.80
2017,08,19,08,13,13.90
2017,08,19,08,14,13.90
2017,08,19,08,15,13.90
2017,08,19,08,16,13.90
2017,08,19,08,17,13.90
2017,08,19,08,18,14.00
2017,08,19,08,19,14.10
2017,08,19,08,20,14.20
2017,08,19,08,21,14.20
2017,08,19,08,22,14.30
2017,08,19,08,23,14.30
2017,08,19,08,24,14.40
2017,08,19,08,25,14.50
2017,08,19,08,26,14.60
2017,08,19,08,27,14.70
2017,08,19,08,28,14.80
2017,08,19,08,29,14.80
2017,08,19,08,30,14.90
2017,08,19,08,31,15.00
2017,08,19,08,32,15.00
2017,08,19,08,33,15.10
2017,08,19,08,34,15.10
2017,08,19,08,35,15.10
2017,08,19,08,36,15.10
2017,08,19,08,37,15.10
2017,08,19,08,38,15.10
2017,08,19,08,39,15.10
2017,08,19,08,40,15.10
2017,08,19,08,41,15.10
2017,08,19,08,42,15.20
2017,08,19,08,43,15.20
2017,08,19,08,44,15.20
2017,08,19,08,45,15.20
2017,08,19,08,46,15.20
2017,08,19,08,47,15.20
2017,08,19,08,48,15.20
2017,08,19,08,49,15.20
2017,08,19,08,50,15.20
2017,08,19,08,51,15.30
2017,08,19,08,52,15.30
2017,08,19,08,53,15.40
2017,08,19,08,54,15.40
2017,08,19,08,55,15.40
2017,08,19,08,56,15.40
2017,08,19,08,57,15.40
2017,08,19,08,58,15.40
2017,08,19,08,59,15.50
2017,08,19,09,00,15.50
2017,08,19,09,01,15.50
2017,08,19,09,02,15.60
2017,08,19,09,03,15.50
2017,08,19,09,04,15.50
2017,08,19,09,05,15.60
2017,08,19,09,06,15.60
2017,08,19,09,07,15.70
2017,08,19,09,08,15.70
2017,08,19,09,09,15.70
2017,08,19,09,10,15.80
2017,08,19,09,11,15.80
2017,08,19,09,12,15.90
2017,08,19,09,13,16.00
2017,08,19,09,14,16.00
2017,08,19,09,15,16.00
2017,08,19,09,16,16.00
2017,08,19,09,17,16.10
2017,08,19,09,18,16.10
2017,08,19,09,19,16.20
2017,08,19,09,20,16.30
2017,08,19,09,21,16.40
2017,08,19,09,22,16.60
2017,08,19,09,23,16.70
2017,08,19,09,24,16.80
2017,08,19,09,25,16.90
2017,08,19,09,26,16.90
2017,08,19,09,27,17.00
2017,08,19,09,28,17.00
2017,08,19,09,29,17.10
2017,08,19,09,30,17.10
2017,08,19,09,31,17.10
2017,08,19,09,32,17.10
2017,08,19,09,33,17.10
2017,08,19,09,34,17.20
2017,08,19,09,35,17.30
2017,08,19,09,36,17.30
2017,08,19,09,37,17.30
2017,08,19,09,38,17.30
2017,08,19,09,39,17.20
2017,08,19,09,40,17.20
2017,08,19,09,41,17.20
2017,08,19,09,42,17.20
2017,08,19,09,43,17.20
2017,08,19,09,44,17.30
2017,08,19,09,45,17.30
2017,08,19,09,46,17.30
2017,08,19,09,47,17.30
2017,08,19,09,48,17.40
2017,08,19,09,49,17.40
2017,08,19,09,50,17.40
2017,08,19,09,51,17.40
2017,08,19,09,52,17.30
2017,08,19,09,53,17.30
2017,08,19,09,54,17.30
2017,08,19,09,55,17.30
2017,08,19,09,56,17.30
2017,08,19,09,57,17.30
2017,08,19,09,58,17.20
2017,08,19,09,59,17.20
2017,08,19,10,00,17.20
2017,08,19,10,01,17.30
2017,08,19,10,02,17.30
2017,08,19,10,03,17.30
2017,08,19,10,04,17.30
2017,08,19,10,05,17.40
2017,08,19,10,06,17.40
2017,08,19,10,07,17.50
2017,08,19,10,08,17.60
2017,08,19,10,09,17.70
2017,08,19,10,10,17.80
2017,08,19,10,11,17.90
2017,08,19,10,12,17.90
2017,08,19,10,13,18.00
2017,08,19,10,14,18.00
2017,08,19,10,15,18.10
2017,08,19,10,16,18.10
2017,08,19,10,17,18.20
2017,08,19,10,18,18.30
2017,08,19,10,19,18.30
2017,08,19,10,20,18.30
2017,08,19,10,21,18.40
2017,08,19,10,22,18.40
2017,08,19,10,23,18.50
2017,08,19,10,24,18.50
2017,08,19,10,25,18.60
2017,08,19,10,26,18.70
2017,08,19,10,27,18.80
2017,08,19,10,28,18.90
2017,08,19,10,29,18.80
2017,08,19,10,30,18.80
2017,08,19,10,31,18.80
2017,08,19,10,32,18.80
2017,08,19,10,33,18.80
2017,08,19,10,34,18.90
2017,08,19,10,35,18.90
2017,08,19,10,36,19.00
2017,08,19,10,37,19.10
2017,08,19,10,38,19.20
2017,08,19,10,39,19.20
2017,08,19,10,40,19.20
2017,08,19,10,41,19.20
2017,08,19,10,42,19.20
2017,08,19,10,43,19.20
2017,08,19,10,44,19.20
2017,08,19,10,45,19.20
2017,08,19,10,46,19.20
2017,08,19,10,47,19.20
2017,08,19,10,48,19.20
2017,08,19,10,49,19.30
2017,08,19,10,50,19.30
2017,08,19,10,51,19.30
2017,08,19,10,52,19.40
2017,08,19,10,53,19.50
2017,08,19,10,54,19.60
2017,08,19,10,55,19.70
2017,08,19,10,56,19.70
2017,08,19,10,57,19.80
2017,08,19,10,58,19.80
2017,08,19,10,59,19.90
2017,08,19,11,00,20.10
2017,08,19,11,01,20.20
2017,08,19,11,02,20.20
2017,08,19,11,03,20.30
2017,08,19,11,04,20.30
2017,08,19,11,05,20.40
2017,08,19,11,06,20.50
2017,08,19,11,07,20.50
2017,08,19,11,08,20.60
2017,08,19,11,09,20.70
2017,08,19,11,10,20.80
2017,08,19,11,11,20.80
2017,08,19,11,12,20.90
2017,08,19,11,13,20.90
2017,08,19,11,14,21.00
2017,08,19,11,15,21.00
2017,08,19,11,16,21.10
2017,08,19,11,17,21.20
2017,08,19,11,18,21.20
2017,08,19,11,19,21.30
2017,08,19,11,20,21.30
2017,08,19,11,21,21.30
2017,08,19,11,22,21.20
2017,08,19,11,23,21.10
2017,08,19,11,24,21.00
2017,08,19,11,25,20.90
2017,08,19,11,26,20.80
2017,08,19,11,27,20.80
2017,08,19,11,28,20.70
2017,08,19,11,29,20.70
2017,08,19,11,30,20.70
2017,08,19,11,31,20.60
2017,08,19,11,32,20.60
2017,08,19,11,33,20.60
2017,08,19,11,34,20.70
2017,08,19,11,35,20.70
2017,08,19,11,36,20.70
2017,08,19,11,37,20.70
2017,08,19,11,38,20.70
2017,08,19,11,39,20.70
2017,08,19,11,40,20.70
2017,08,19,11,41,20.80
2017,08,19,11,42,20.80
2017,08,19,11,43,20.80
2017,08,19,11,44,20.80
2017,08,19,11,45,20.80
2017,08,19,11,46,20.90
2017,08,19,11,47,21.00
2017,08,19,11,48,21.10
2017,08,19,11,49,21.20
2017,08,19,11,50,21.30
2017,08,19,11,51,21.30
2017,08,19,11,52,21.30
2017,08,19,11,53,21.30
2017,08,19,11,54,21.30
2017,08,19,11,55,21.30
2017,08,19,11,56,21.30
2017,08,19,11,57,21.40
2017,08,19,11,58,21.50
2017,08,19,11,59,21.60
2017,08,19,12,00,21.60
2017,08,19,12,01,21.60
2017,08,19,12,02,21.60
2017,08,19,12,03,21.60
2017,08,19,12,04,21.60
2017,08,19,12,05,21.70
2017,08,19,12,06,21.70
2017,08,19,12,07,21.80
2017,08,19,12,08,21.90
2017,08,19,12,09,21.90
2017,08,19,12,10,22.00
2017,08,19,12,11,22.10
2017,08,19,12,12,22.10
2017,08,19,12,13,22.10
2017,08,19,12,14,22.10
2017,08,19,12,15,22.10
2017,08,19,12,16,22.10
2017,08,19,12,17,22.20
2017,08,19,12,18,22.20
2017,08,19,12,19,22.20
2017,08,19,12,20,22.20
2017,08,19,12,21,22.20
2017,08,19,12,22,22.20
2017,08,19,12,23,22.20
2017,08,19,12,24,22.20
2017,08,19,12,25,22.30
2017,08,19,12,26,22.30
2017,08,19,12,27,22.40
2017,08,19,12,28,22.40
2017,08,19,12,29,22.40
2017,08,19,12,30,22.40
2017,08,19,12,31,22.50
2017,08,19,12,32,22.50
2017,08,19,12,33,22.60
2017,08,19,12,34,22.70
2017,08,19,12,35,22.70
2017,08,19,12,36,22.80
2017,08,19,12,37,22.80
2017,08,19,12,38,22.70
2017,08,19,12,39,22.70
2017,08,19,12,40,22.70
2017,08,19,12,41,22.70
2017,08,19,12,42,22.70
2017,08,19,12,43,22.70
2017,08,19,12,44,22.70
2017,08,19,12,45,22.70
2017,08,19,12,46,22.80
2017,08,19,12,47,22.80
2017,08,19,12,48,22.80
2017,08,19,12,49,22.80
2017,08,19,12,50,22.80
2017,08,19,12,51,22.80
2017,08,19,12,52,22.80
2017,08,19,12,53,22.80
2017,08,19,12,54,22.80
2017,08,19,12,55,22.90
2017,08,19,12,56,22.90
2017,08,19,12,57,22.90
2017,08,19,12,58,22.90
2017,08,19,12,59,22.90
2017,08,19,13,00,22.90
2017,08,19,13,01,23.00
2017,08,19,13,02,23.10
2017,08,19,13,03,23.10
2017,08,19,13,04,23.00
2017,08,19,13,05,22.90
2017,08,19,13,06,22.80
2017,08,19,13,07,22.90
2017,08,19,13,08,22.90
2017,08,19,13,09,22.90
2017,08,19,13,10,22.90
2017,08,19,13,11,22.90
2017,08,19,13,12,23.00
2017,08,19,13,13,23.10
2017,08,19,13,14,23.00
2017,08,19,13,15,23.00
2017,08,19,13,16,22.90
2017,08,19,13,17,22.80
2017,08,19,13,18,22.80
2017,08,19,13,19,22.80
2017,08,19,13,20,22.80
2017,08,19,13,21,22.80
2017,08,19,13,22,22.90
2017,08,19,13,23,22.90
2017,08,19,13,24,22.90
2017,08,19,13,25,22.90
2017,08,19,13,26,22.90
2017,08,19,13,27,22.90
2017,08,19,13,28,23.00
2017,08,19,13,29,23.00
2017,08,19,13,30,23.10
2017,08,19,13,31,23.20
2017,08,19,13,32,23.30
2017,08,19,13,33,23.40
2017,08,19,13,34,23.40
2017,08,19,13,35,23.50
2017,08,19,13,36,23.50
2017,08,19,13,37,23.50
2017,08,19,13,38,23.60
2017,08,19,13,39,23.60
2017,08,19,13,40,23.60
2017,08,19,13,41,23.60
2017,08,19,13,42,23.60
2017,08,19,13,43,23.60
2017,08,19,13,44,23.60
2017,08,19,13,45,23.70
2017,08,19,13,46,23.70
2017,08,19,13,47,23.80
2017,08,19,13,48,23.80
2017,08,19,13,49,23.70
2017,08,19,13,50,23.60
2017,08,19,13,51,23.60
2017,08,19,13,52,23.50
2017,08,19,13,53,23.60
2017,08,19,13,54,23.60
2017,08,19,13,55,23.60
2017,08,19,13,56,23.60
2017,08,19,13,57,23.70
2017,08,19,13,58,23.70
2017,08,19,13,59,23.80
2017,08,19,14,00,23.80
2017,08,19,14,01,23.80
2017,08,19,14,02,23.80
2017,08,19,14,03,23.80
2017,08,19,14,04,23.80
2017,08,19,14,05,23.90
2017,08,19,14,06,23.90
2017,08,19,14,07,23.80
2017,08,19,14,08,23.80
2017,08,19,14,09,23.80
2017,08,19,14,10,23.90
2017,08,19,14,11,24.00
2017,08,19,14,12,24.10
2017,08,19,14,13,24.10
2017,08,19,14,14,24.10
2017,08,19,14,15,24.10
2017,08,19,14,16,24.00
2017,08,19,14,17,24.00
2017,08,19,14,18,24.10
2017,08,19,14,19,24.10
2017,08,19,14,20,24.10
2017,08,19,14,21,24.10
2017,08,19,14,22,24.00
2017,08,19,14,23,24.00
2017,08,19,14,24,24.00
2017,08,19,14,25,24.00
2017,08,19,14,26,23.90
2017,08,19,14,27,23.90
2017,08,19,14,28,23.90
2017,08,19,14,29,24.00
2017,08,19,14,30,24.10
2017,08,19,14,31,24.10
2017,08,19,14,32,24.10
2017,08,19,14,33,24.10
2017,08,19,14,34,24.10
2017,08,19,14,35,24.00
2017,08,19,14,36,24.00
2017,08,19,14,37,24.10
2017,08,19,14,38,24.00
2017,08,19,14,39,24.00
2017,08,19,14,40,24.00
2017,08,19,14,41,23.90
2017,08,19,14,42,23.90
2017,08,19,14,43,23.90
2017,08,19,14,44,23.90
2017,08,19,14,45,24.00
2017,08,19,14,46,24.00
2017,08,19,14,47,24.00
2017,08,19,14,48,24.10
2017,08,19,14,49,24.10
2017,08,19,14,50,24.10
2017,08,19,14,51,24.10
2017,08,19,14,52,24.10
2017,08,19,14,53,24.10
2017,08,19,14,54,24.10
2017,08,19,14,55,24.10
2017,08,19,14,56,24.00
2017,08,19,14,57,23.90
2017,08,19,14,58,23.80
2017,08,19,14,59,23.80
2017,08,19,15,00,23.90
2017,08,19,15,01,24.00
2017,08,19,15,02,24.10
2017,08,19,15,03,24.10
2017,08,19,15,04,24.10
2017,08,19,15,05,24.20
2017,08,19,15,06,24.20
2017,08,19,15,07,24.20
2017,08,19,15,08,24.20
2017,08,19,15,09,24.10
2017,08,19,15,10,24.00
2017,08,19,15,11,23.90
2017,08,19,15,12,23.90
2017,08,19,15,13,23.90
2017,08,19,15,14,23.90
2017,08,19,15,15,23.80
2017,08,19,15,16,23.90
2017,08,19,15,17,23.90
2017,08,19,15,18,24.00
2017,08,19,15,19,24.00
2017,08,19,15,20,23.90
2017,08,19,15,21,23.90
2017,08,19,15,22,24.00
2017,08,19,15,23,24.00
2017,08,19,15,24,24.00
2017,08,19,15,25,23.90
2017,08,19,15,26,23.80
2017,08,19,15,27,23.80
2017,08,19,15,28,23.80
2017,08,19,15,29,23.80
2017,08,19,15,30,23.80
2017,08,19,15,31,23.80
2017,08,19,15,32,23.70
2017,08,19,15,33,23.80
2017,08,19,15,34,23.80
2017,08,19,15,35,23.80
2017,08,19,15,36,23.80
2017,08,19,15,37,23.90
2017,08,19,15,38,23.90
2017,08,19,15,39,24.00
2017,08,19,15,40,23.90
2017,08,19,15,41,24.00
2017,08,19,15,42,24.00
2017,08,19,15,43,24.00
2017,08,19,15,44,23.90
2017,08,19,15,45,23.90
2017,08,19,15,46,23.90
2017,08,19,15,47,23.90
2017,08,19,15,48,23.90
2017,08,19,15,49,23.90
2017,08,19,15,50,23.90
2017,08,19,15,51,23.80
2017,08,19,15,52,23.80
2017,08,19,15,53,23.80
2017,08,19,15,54,23.80
2017,08,19,15,55,23.90
2017,08,19,15,56,24.00
2017,08,19,15,57,24.00
2017,08,19,15,58,24.10
2017,08,19,15,59,24.20
2017,08,19,16,00,24.20
2017,08,19,16,01,24.10
2017,08,19,16,02,24.10
2017,08,19,16,03,24.00
2017,08,19,16,04,24.00
2017,08,19,16,05,24.00
2017,08,19,16,06,23.90
2017,08,19,16,07,23.80
2017,08,19,16,08,23.80
2017,08,19,16,09,23.80
2017,08,19,16,10,23.80
2017,08,19,16,11,23.80
2017,08,19,16,12,23.80
2017,08,19,16,13,23.70
2017,08,19,16,14,23.70
2017,08,19,16,15,23.70
2017,08,19,16,16,23.70
2017,08,19,16,17,23.80
2017,08,19,16,18,23.80
2017,08,19,16,19,23.80
2017,08,19,16,20,23.90
2017,08,19,16,21,23.90
2017,08,19,16,22,24.00
2017,08,19,16,23,24.00
2017,08,19,16,24,23.90
2017,08,19,16,25,23.90
2017,08,19,16,26,23.90
2017,08,19,16,27,23.90
2017,08,19,16,28,24.00
2017,08,19,16,29,24.00
2017,08,19,16,30,24.10
2017,08,19,16,31,24.10
2017,08,19,16,32,24.10
2017,08,19,16,33,24.00
2017,08,19,16,34,24.00
2017,08,19,16,35,23.90
2017,08,19,16,36,23.90
2017,08,19,16,37,23.90
2017,08,19,16,38,23.90
2017,08,19,16,39,24.00
2017,08,19,16,40,24.00
2017,08,19,16,41,24.00
2017,08,19,16,42,24.00
2017,08,19,16,43,24.00
2017,08,19,16,44,24.10
2017,08,19,16,45,24.10
2017,08,19,16,46,24.10
2017,08,19,16,47,24.10
2017,08,19,16,48,24.10
2017,08,19,16,49,24.10
2017,08,19,16,50,24.20
2017,08,19,16,51,24.10
2017,08,19,16,52,24.10
2017,08,19,16,53,24.00
2017,08,19,16,54,24.00
2017,08,19,16,55,24.00
2017,08,19,16,56,24.10
2017,08,19,16,57,24.10
2017,08,19,16,58,24.20
2017,08,19,16,59,24.20
2017,08,19,17,00,24.20
2017,08,19,17,01,24.20
2017,08,19,17,02,24.20
2017,08,19,17,03,24.20
2017,08,19,17,04,24.20
2017,08,19,17,05,24.20
2017,08,19,17,06,24.20
2017,08,19,17,07,24.20
2017,08,19,17,08,24.20
2017,08,19,17,09,24.20
2017,08,19,17,10,24.30
2017,08,19,17,11,24.30
2017,08,19,17,12,24.30
2017,08,19,17,13,24.40
2017,08,19,17,14,24.50
2017,08,19,17,15,24.60
2017,08,19,17,16,24.60
2017,08,19,17,17,24.70
2017,08,19,17,18,24.70
2017,08,19,17,19,24.70